Home   Weather   Kowloon   Past weeks
Flag for Hong Kong

Past Weather in Kowloon, Hong Kong — Yesterday and Last 2 Weeks

Now
81 °F

Passing clouds.


Feels Like: 86 °F
Forecast: 84 / 79 °F
Wind: 9 mph from East

Location: National Airport

Current Time: May 25, 2019 at 5:11:46 am

Latest Report: May 25, 2019 at 4:30 am


Visibility: N/A

Pressure: 29.77 "Hg

Humidity: 84%

Dew Point: 75 °F

Location of KowloonLocation

Past Weather in Kowloon — Graph

°F

Kowloon Temperature Yesterday

Maximum temperature yesterday: 82 °F (at 10:30 am)
Minimum temperature yesterday: 77 °F (at 2:30 am)
Average temperature yesterday: 80 °F

High & Low Weather Summary for the Past Weeks

 TemperatureHumidityPressure
High93 °F (May 18, 12:30 pm)94% (May 10, 9:00 am)29.92 "Hg (May 10, 9:00 am)
Low73 °F (May 21, 10:00 pm)55% (May 12, 12:00 pm)29.62 "Hg (May 17, 3:00 pm)
Average83 °F76%29.78 "Hg
* Reported May 10 4:00 am — May 25 4:00 am, Kowloon. Weather by CustomWeather, © 2019

Note: Actual official high and low records may vary slightly from our data, if they occured in-between our weather recording intervals... More about our weather records

Advertising

Kowloon Weather History for the Previous 24 Hours

Scroll right to see more
 ConditionsComfort  
Time TempWeatherWind HumidityBarometerVisibility
4:00 am
Sat, May 25
81 °FPassing clouds.9 mph84%29.77 "HgN/A
3:30 am81 °FPassing clouds.12 mph84%29.77 "HgN/A
3:00 am81 °FPassing clouds.10 mph84%29.77 "HgN/A
2:30 am81 °FPassing clouds.12 mph84%29.80 "HgN/A
2:00 am81 °FPassing clouds.10 mph84%29.80 "HgN/A
1:30 am81 °FPassing clouds.14 mph84%29.80 "HgN/A
1:00 am79 °FPassing clouds.13 mph89%29.80 "HgN/A
12:30 am81 °FSprinkles. Passing clouds.15 mph84%29.83 "Hg5 mi
12:00 am79 °FSprinkles. Passing clouds.15 mph89%29.83 "HgN/A
11:30 pm
Fri, May 24
79 °FSprinkles. Passing clouds.15 mph89%29.86 "Hg6 mi
11:00 pm81 °FPassing clouds.15 mph84%29.86 "HgN/A
10:30 pm81 °FSprinkles. Passing clouds.15 mph79%29.83 "HgN/A
10:00 pm81 °FPassing clouds.17 mph79%29.83 "HgN/A
9:30 pm81 °FPassing clouds.17 mph79%29.83 "HgN/A
9:00 pm81 °FPassing clouds.18 mph84%29.83 "HgN/A
8:30 pm81 °FPassing clouds.18 mph79%29.80 "HgN/A
8:00 pm79 °FPassing clouds.17 mph84%29.80 "Hg6 mi
7:30 pm81 °FPassing clouds.21 mph79%29.80 "Hg6 mi
7:00 pm81 °FPassing clouds.20 mph79%29.80 "Hg6 mi
6:30 pm81 °FScattered clouds.20 mph79%29.80 "Hg6 mi
6:00 pm81 °FScattered clouds.18 mph79%29.80 "Hg6 mi
5:30 pm81 °FScattered clouds.16 mph79%29.80 "HgN/A
5:00 pm81 °FScattered clouds.16 mph79%29.80 "HgN/A
4:30 pm81 °FScattered clouds.17 mph79%29.80 "HgN/A
4:00 pm81 °FScattered clouds.18 mph79%29.80 "HgN/A
3:30 pm81 °FScattered clouds.18 mph79%29.80 "HgN/A
3:00 pm81 °FScattered clouds.21 mph79%29.80 "HgN/A
2:30 pm81 °FScattered clouds.22 mph79%29.80 "HgN/A
2:00 pm81 °FScattered clouds.20 mph79%29.83 "HgN/A
1:30 pm82 °FScattered clouds.17 mph74%29.83 "HgN/A
1:00 pm81 °FScattered clouds.18 mph79%29.86 "HgN/A
12:30 pm81 °FScattered clouds.15 mph79%29.86 "HgN/A
12:00 pm82 °FScattered clouds.18 mph74%29.86 "HgN/A
11:30 am82 °FScattered clouds.15 mph74%29.86 "HgN/A
11:00 am82 °FScattered clouds.16 mph74%29.86 "HgN/A
10:30 am82 °FScattered clouds.16 mph74%29.86 "HgN/A
10:00 am81 °FScattered clouds.16 mph79%29.86 "HgN/A
9:30 am81 °FScattered clouds.16 mph79%29.86 "HgN/A
9:00 am79 °FScattered clouds.20 mph84%29.86 "HgN/A
8:30 am79 °FScattered clouds.21 mph84%29.86 "HgN/A
8:00 am79 °FScattered clouds.20 mph84%29.86 "HgN/A
7:30 am79 °FScattered clouds.18 mph84%29.86 "HgN/A
7:00 am79 °FScattered clouds.16 mph84%29.86 "HgN/A
6:30 am77 °FScattered clouds.17 mph89%29.86 "HgN/A
6:00 am77 °FScattered clouds.17 mph89%29.83 "HgN/A
5:30 am77 °FPassing clouds.16 mph89%29.83 "Hg6 mi
5:00 am77 °FPassing clouds.15 mph89%29.83 "Hg5 mi
Weather by CustomWeather, © 2019

See weather overview